EW3861 Weather Reports


time (UTC)temp
C
wind
direction
speed
KPH
gust
KPH
rain 1hr
cm
rain 24hr
cm
rain mn
cm
humidity
%
barometer
mb
20260504000130 10 244 0.0 0.0 0.00 0.00 0.00 45 1007.9
20260503234519 10 326 0.0 0.0 0.00 0.00 0.00 43 1007.7
20260503233120 10 310 0.0 0.0 0.00 0.00 0.00 43 1007.6
20260503231531 10 306 0.0 0.0 0.00 0.00 0.00 42 1007.4
20260503230003 10 288 0.0 0.0 0.00 0.00 0.00 43 1007.0
20260503224555 11 151 0.0 0.0 0.00 0.00 0.00 42 1006.9
20260503223014 11 261 0.0 0.0 0.00 0.00 0.00 41 1006.7
20260503221610 11 302 0.0 0.0 0.00 0.00 0.00 40 1006.5
20260503220032 11 311 0.0 0.0 0.00 0.00 0.00 43 1006.4
20260503214510 11 268 0.0 0.0 0.00 0.00 0.00 42 1006.1
20260503213100 11 288 0.0 0.0 0.00 0.00 0.00 42 1005.9
20260503211516 11 341 0.0 0.0 0.00 0.00 0.00 43 1005.6
20260503210106 11 302 0.0 0.0 0.00 0.00 0.00 40 1005.3
20260503204545 11 306 0.0 0.0 0.00 0.00 0.00 42 1005.1
20260503203012 11 313 0.0 0.0 0.00 0.00 0.00 43 1005.1
20260503201601 12 130 0.0 0.0 0.00 0.00 0.00 42 1004.9
20260503200018 11 98 0.0 0.0 0.00 0.00 0.00 43 1005.0
20260503194505 11 298 0.0 0.0 0.00 0.00 0.00 44 1005.0
20260503193114 11 45 0.0 0.0 0.00 0.00 0.00 47 1004.8
20260503191514 11 319 0.0 0.0 0.00 0.00 0.00 51 1005.0
20260503190107 11 311 0.0 0.0 0.00 0.00 0.00 49 1005.1
20260503184528 11 120 0.0 0.0 0.00 0.00 0.00 50 1004.9
20260503183122 10 46 0.0 0.0 0.00 0.00 0.00 52 1005.0
20260503181554 10 321 0.0 0.0 0.00 0.00 0.00 52 1005.0
20260503180016 10 90 0.0 0.0 0.00 0.00 0.00 51 1005.1
20260503174622 11 313 0.0 0.0 0.00 0.00 0.00 51 1005.0
20260503173052 10 84 0.0 0.0 0.00 0.00 0.00 53 1004.8
20260503171503 9 83 0.0 0.0 0.00 0.00 0.00 57 1005.0
20260503120105 6 344 0.0 0.0 0.00 0.00 0.00 76 1005.3
20260503110111 6 294 0.0 0.0 0.00 0.00 0.00 78 1005.7
20260503090110 7 174 0.0 0.0 0.00 0.00 0.00 80 1006.1
20260503081547 7 81 0.0 0.0 0.00 0.00 0.00 79 1006.2
20260503071511 7 94 0.0 0.0 0.00 0.00 0.00 76 1006.8
20260503070118 7 289 0.0 0.0 0.00 0.00 0.00 76 1007.0
20260503054612 7 303 0.0 0.0 0.00 0.00 0.00 77 1008.0
20260503053034 8 55 0.0 0.0 0.00 0.00 0.00 83 1008.1
20260503051525 8 55 0.0 0.0 0.00 0.00 0.00 88 1008.1
20260503050110 8 55 0.0 0.0 0.00 0.00 0.00 91 1008.1
20260503044541 8 226 0.0 0.0 0.00 0.00 0.00 92 1008.4
20260503043007 8 226 0.0 0.0 0.00 0.00 0.00 92 1008.5
20260503041558 8 226 0.0 0.0 0.00 0.00 0.00 92 1008.8
20260503040002 8 226 0.0 0.0 0.00 0.00 0.00 92 1009.0
20260503034612 8 226 0.0 0.0 0.00 0.00 0.00 91 1008.9
20260503033025 8 226 0.0 0.0 0.00 0.00 0.00 91 1008.9
20260503031613 8 226 0.0 0.0 0.00 0.00 0.00 90 1009.1
20260503030028 8 226 0.0 0.0 0.00 0.00 0.00 90 1009.1
20260503024633 8 226 0.0 0.0 0.00 0.00 0.00 90 1009.1
20260503023058 9 226 0.0 0.0 0.00 0.00 0.00 89 1009.1
20260503021505 9 226 0.0 0.0 0.00 0.00 0.00 89 1009.0
20260503020059 9 226 0.0 0.0 0.00 0.00 0.00 89 1009.2
20260503014510 9 226 0.0 0.0 0.00 0.00 0.00 89 1009.4
20260503013104 9 226 0.0 0.0 0.00 0.00 0.00 88 1009.5
20260503011514 9 226 0.0 0.0 0.00 0.00 0.00 88 1009.4
20260503010124 9 226 0.0 0.0 0.00 0.00 0.00 87 1009.4
20260503004512 10 225 0.0 0.0 0.00 0.00 0.00 87 1009.4
20260503003113 10 225 0.0 0.0 0.00 0.00 0.00 86 1009.2
20260503001519 10 225 0.0 0.0 0.00 0.00 0.00 86 1009.2